Powrót do katalogu

FORMOSAT-8A

AktywnyNaukaSSO
NORAD 66666·PAYLOAD·🇹🇼 Taiwan

Wystrzelony Nov 28, 2025 z Vandenberg Space Force Base

Loading…

Następne Przeloty (najbliższe 24 godziny)

TLE

ŚwieżeSource: Space-Track

Epoka: Sep 14, 2026, 03:28 UTC

1 66666U 25276A   26257.14455792  .00001296  00000-0  10603-3 0  9992
2 66666  97.6543 330.0521 0006050 332.4424  27.6478 15.01064045 43404

Śledź FORMOSAT-8A w czasie rzeczywistym z AllMySat

Download on the App Store